Find Starlink 30603

NORAD ID: 58080 Int'l Des: 2023-160 Owner: SPXS Country: US Constellation: starlink operational
LEOCIRCULAR

現在のビュー

3D地球を読み込み中...

Starlink 30603について

説明を読み込み中...

次回通過

Passes for default location (London). Set your location on the main map for personalized predictions.

高度履歴

Loading altitude history...

軌道要素

1 58080U 23160F 26158.64852950 -.00003906 00000-0 -13254-3 0 9992
2 58080 43.0020 289.8702 0001451 264.2134 95.8552 15.27564927146701
Epoch: Jun 7, 2026 • Age: 32 hours

現在のステータス

高度 491.2 km
速度 7.62 km/s
衛星直下点 -31.91°S, 112.85°W
打ち上げ日 Oct 18, 2023
運用期間 2.6 years
タイプ internet

技術仕様

分類 Payload
質量 730.00 kg
乾燥質量 700.00 kg
総質量 730.00 kg
長さ 0.30 m
直径 4.10 m
スパン 29.00 m
形状 Box + pan
製造者 SPXS
バスタイプ Starlink V2M
フェーズステータス In Orbit
所有者/国 SPXS/US

Most Searched